User: anonymous   Login
Location: Caltech
(34.1382°N, 118.1253°W)
Time: 00:39:48
(UTC-07:00)
Language:

TMSAT-1 - Orbit

View from above orbital plane
View from above orbital plane
View from above satellite
View from above satellite

Ground track
Ground track

The orbit data is extracted from the following two-line orbital elements,

1 25396U 98043C   14303.96498648  .00000174  00000-0  93667-4 0  9890
2 25396 098.4575 260.5202 0001761 225.9067 174.2728 14.24218133847489
Epoch (UTC): 30 October 2014 23:09:34
Eccentricity: 0.0001761
inclination: 98.4575°
perigee height: 810 km
apogee height: 812 km
right ascension of ascending node: 260.5202°
argument of perigee: 225.9067°
revolutions per day: 14.24218133
mean anomaly at epoch: 174.2728°
orbit number at epoch: 84748

The dashed part of the orbit path shows where the satellite is in the earth's shadow,  

DLR